AirNav   Air Wisconsin pilot careers
 
 1599 users online  

S72 St Maries Municipal Airport
St Maries, Idaho, USA

GOING TO ST MARIES?


FAA INFORMATION EFFECTIVE 19 JULY 2018

Location

FAA Identifier: S72
Lat/Long: 47-19-32.9200N / 116-34-36.0400W
47-19.548667N / 116-34.600667W
47.3258111 / -116.5766778
(estimated)
Elevation: 2131.3 ft. / 649.6 m (surveyed)
Variation: 15E (2010)
From city: 1 mile NW of ST MARIES, ID
Time zone: UTC -7 (UTC -8 during Standard Time)
Zip code: 83861

Airport Operations

Airport use: Open to the public
Activation date: 04/1940
Control tower: no
ARTCC: SEATTLE CENTER
FSS: BOISE FLIGHT SERVICE STATION
NOTAMs facility: BOI (NOTAM-D service available)
Attendance: UNATNDD
Wind indicator: lighted
Segmented circle: yes
Lights: ACTVT MIRL RWY 10/28 - CTAF.
Beacon: white-green (lighted land airport)
Operates sunset to sunrise.

Airport Communications

CTAF/UNICOM: 122.8

Nearby radio navigation aids

VOR radial/distance  VOR name  Freq  Var
COEr141/28.6COEUR D'ALENE VOR/DME108.8019E
MLPr243/38.6MULLAN PASS VOR/DME117.8015E

Airport Services

Fuel available: 100LL
Parking: tiedowns
Airframe service: MINOR
Powerplant service: MINOR
Bottled oxygen: NONE
Bulk oxygen: NONE

Runway Information

Runway 10/28

Dimensions: 3354 x 60 ft. / 1022 x 18 m
Surface: asphalt, in good condition
Weight bearing capacity: 
Single wheel: 12.5
Runway edge lights: medium intensity
NSTD MIRL FIRST 715 FT WEST END NOT LIGHTED.
Runway edge markings: NSTD DSPLCD THLD MARKING YELLOW CHEVRONS.
RUNWAY 10  RUNWAY 28
Latitude: 47-19.666000N47-19.431333N
Longitude: 116-34.967833W116-34.233500W
Elevation: 2131.3 ft.2126.3 ft.
Gradient: 0.1%0.1%
Traffic pattern: rightleft
Markings: basic, in good conditionbasic, in good condition
Runway end identifier lights: no
Touchdown point: yes, no lightsyes, no lights
Obstructions: 45 ft. road, 600 ft. from runway, 165 ft. right of centerline, 8:1 slope to clear
DSPLCD FOR 45' ROAD AT 0';30 FT R; 23:1 FM DSPLCD THLD.
45 ft. trees, 1700 ft. from runway, 33:1 slope to clear
ADDNL OBSTNS +50' PLINE AT 2000', ON CNTRLN +4' FENCE AT 275' ON CNTRLN, +1000' RIDGE AT 1 1/2 MILES, ON CNTRLN.

Airport Ownership and Management from official FAA records

Ownership: Publicly-owned
Owner: BENEWAH COUNTY
BENEWAH COUNTY COURTHOUSE
ST MARIES, ID 83861
Phone 208-245-2234
Manager: DALE PRITCHARD
P O BOX 264
ST MARIES, ID 83861
Phone 208-582-0941

Airport Operational Statistics

Aircraft based on the field: 26
Single engine airplanes: 23
Multi engine airplanes: 3
    
Aircraft operations: avg 36/day *
64% transient general aviation
36% local general aviation
* for 12-month period ending 19 August 2016

Additional Remarks

RY 28 HAS 200 FT STOPWAY.

Instrument Procedures

There are no published instrument procedures at S72.

Some nearby airports with instrument procedures:

KCOE - Coeur d'Alene Airport - Pappy Boyington Field (29 nm N)
KSFF - Felts Field Airport (37 nm NW)
KPUW - Pullman/Moscow Regional Airport (41 nm SW)
KGEG - Spokane International Airport (43 nm NW)
KSKA - Fairchild Air Force Base (47 nm W)
 
Loc | Ops | Rwys | IFR | FBO | Links
Com | Nav | Svcs | Stats | Notes


 
Area around S72 (St Maries Municipal Airport)
 
Road maps at: MapQuest Bing Google
 
Aerial photo
WARNING: Photo may not be current or correct
Aerial photo of S72 (St Maries Municipal Airport)
Photo by Colin FitzGerald
Photo taken 26-Nov-2011
looking east.

Do you have a better or more recent aerial photo of St Maries Municipal Airport that you would like to share? If so, please send us your photo.

 
Sectional chart

 
Airport distance calculator
Flying to St Maries Municipal Airport? Find the distance to fly.

From to S72

Sunrise and sunset
Times for 15-Aug-2018
 Local
(UTC-7)
 Zulu
(UTC)
Morning civil twilight05:1012:10
Sunrise05:4412:44
Sunset19:5802:58
Evening civil twilight20:3103:31

Current date and time
Zulu (UTC)  15-Aug-2018 15:36:39
Local (UTC-7)  15-Aug-2018 08:36:39
 
METAR
KCOE 
28nm N 
151456Z AUTO 08004KT 5SM HZ CLR 17/10 A3000 RMK AO2 SLP158 T01720100 51012
KSFF 
37nm NW 
151453Z 00000KT 3SM HZ FU CLR 16/08 A2998 RMK AO2 SLP139 T01610083 51008
KMLP 
38nm E 
151453Z AUTO 32003KT 4SM HZ CLR 17/01 A3017 RMK AO2 SLP116 T01720006 53009
KPUW 
41nm SW 
151453Z AUTO 09009KT 5SM HZ CLR 20/04 A3000 RMK AO2 SLP144 T02000039 53010
KGEG 
43nm NW 
151453Z 10003KT 4SM FU HZ SCT045 18/06 A2998 RMK AO2 SLP134 FU SCT045 T01780056 51013
KSKA 
47nm W 
151458Z 07004KT 5SM FU SCT010 17/05 A2998 RMK AO2A FU SCT010 SLP141 T01700053 52010 $
TAF
KCOE 
28nm N 
151132Z 1512/1612 07004KT 6SM HZ SKC FM151600 09006KT 3SM FU HZ BKN035 FM152100 23005KT 5SM FU HZ SCT040 SCT250 FM160300 15003KT 6SM FU HZ SCT040 BKN150
NOTAMs
Click for the latest NOTAMs
NOTAMs are issued by the DoD/FAA and will open in a separate window not controlled by AirNav.

 

 
 

FBO, Fuel Providers, and Aircraft Ground Support

  
 Business Name 
 
 Contact 
 
 Services / Description 
 
Fuel Prices
 
Comments
  
St Maries Municipal Airport 208-582-0941
no information available

If you are affiliated with St Maries Municipal Airport and would like to show here your services, contact info, web link, logo, and more, click here
100LL
SS $4.55 
 Updated 01-Jul-2018
 
   write
SS=Self service
Update Fuel Prices
 

Would you like to see your business listed on this page?

 If your business provides an interesting product or service to pilots, flight crews, aircraft, or users of the St Maries Municipal Airport, you should consider listing it here.  To start the listing process, click on the button below
 
Add a business
 

Other Pages about St Maries Municipal Airport

Update a link
 
Copyright © AirNav, LLC. All rights reserved. Privacy Policy  Contact